When you browse on this site, cookies collect data to enhance your experience and personalize the content and advertising you see.
Visit our Privacy Policy to learn more. By continuing to use the site, you agree to this use of cookies and data.
  • en Belgique
  • Liste des pays
  • À 7 jours
  • Température de l'eau
  • Carte météo
  • Widgets météo
  • user-avatar
    Se connecter

    Météo par heure à Kalgoorlie

    Ce jour, 29 Mai, Vendredi

    Heure Température Précipitation Vent Pression Humidité
    00:00 +12°C° 0 mm 4 m/s 730 mmHg 47%
    01:00 +11°C° 0 mm 4 m/s 730 mmHg 49%
    02:00 +11°C° 0 mm 4 m/s 730 mmHg 50%
    03:00 +11°C° 0 mm 4 m/s 730 mmHg 51%
    04:00 +10°C° 0 mm 4 m/s 730 mmHg 51%
    05:00 +10°C° 0 mm 4 m/s 730 mmHg 52%
    06:00 +10°C° 0 mm 4 m/s 730 mmHg 49%
    07:00 +10°C° 0 mm 5 m/s 730 mmHg 47%
    08:00 +10°C° 0 mm 5 m/s 730 mmHg 45%
    09:00 +14°C° 0 mm 7 m/s 729 mmHg 38%
    10:00 +16°C° 0 mm 8 m/s 729 mmHg 31%
    11:00 +19°C° 0 mm 10 m/s 729 mmHg 23%
    12:00 +19°C° 0 mm 10 m/s 728 mmHg 22%
    13:00 +21°C° 0 mm 10 m/s 727 mmHg 21%
    14:00 +21°C° 0 mm 10 m/s 727 mmHg 20%
    15:00 +19°C° 0 mm 9 m/s 726 mmHg 22%
    16:00 +18°C° 0 mm 8 m/s 726 mmHg 24%
    17:00 +17°C° 0 mm 7 m/s 726 mmHg 26%
    18:00 +17°C° 0 mm 7 m/s 726 mmHg 29%
    19:00 +16°C° 0 mm 7 m/s 726 mmHg 32%
    20:00 +15°C° 0 mm 7 m/s 726 mmHg 36%
    21:00 +15°C° 0 mm 8 m/s 726 mmHg 44%
    22:00 +15°C° 0 mm 9 m/s 726 mmHg 52%
    23:00 +14°C° 0 mm 10 m/s 727 mmHg 60%

    Demain, 30 Mai, Samedi

    Heure Température Précipitation Vent Pression Humidité
    00:00 +13°C° 0.2 mm 9 m/s 727 mmHg 64%
    01:00 +12°C° 0.2 mm 8 m/s 727 mmHg 69%
    02:00 +10°C° 0.2 mm 6 m/s 727 mmHg 73%
    03:00 +10°C° 0 mm 6 m/s 728 mmHg 74%
    04:00 +9°C° 0 mm 6 m/s 729 mmHg 75%
    05:00 +8°C° 0 mm 5 m/s 730 mmHg 75%
    06:00 +8°C° 0 mm 6 m/s 730 mmHg 72%
    07:00 +8°C° 0 mm 6 m/s 731 mmHg 68%
    08:00 +8°C° 0 mm 7 m/s 731 mmHg 65%
    09:00 +10°C° 0 mm 7 m/s 732 mmHg 57%
    10:00 +11°C° 0 mm 7 m/s 732 mmHg 50%
    11:00 +12°C° 0 mm 7 m/s 732 mmHg 42%
    12:00 +14°C° 0 mm 7 m/s 732 mmHg 40%
    13:00 +14°C° 0 mm 6 m/s 731 mmHg 38%
    14:00 +15°C° 0 mm 6 m/s 731 mmHg 36%
    15:00 +14°C° 0 mm 6 m/s 731 mmHg 39%
    16:00 +14°C° 0 mm 5 m/s 732 mmHg 42%
    17:00 +13°C° 0 mm 4 m/s 732 mmHg 45%
    18:00 +12°C° 0 mm 4 m/s 733 mmHg 49%
    19:00 +11°C° 0 mm 4 m/s 733 mmHg 53%
    20:00 +10°C° 0 mm 4 m/s 733 mmHg 58%
    21:00 +10°C° 0 mm 4 m/s 733 mmHg 60%
    22:00 +10°C° 0 mm 4 m/s 734 mmHg 61%
    23:00 +9°C° 0 mm 3 m/s 734 mmHg 63%

    Après-demain, 31 Mai, Dimanche

    Heure Température Précipitation Vent Pression Humidité
    00:00 +8°C° 0 mm 4 m/s 734 mmHg 64%
    01:00 +8°C° 0 mm 4 m/s 733 mmHg 65%
    02:00 +8°C° 0 mm 4 m/s 733 mmHg 66%
    03:00 +8°C° 0 mm 4 m/s 733 mmHg 70%
    04:00 +7°C° 0 mm 4 m/s 733 mmHg 74%
    05:00 +7°C° 0 mm 4 m/s 733 mmHg 78%
    06:00 +8°C° 0 mm 5 m/s 734 mmHg 76%
    07:00 +8°C° 0 mm 6 m/s 734 mmHg 75%
    08:00 +9°C° 0 mm 7 m/s 734 mmHg 74%
    09:00 +11°C° 0 mm 7 m/s 735 mmHg 66%
    10:00 +14°C° 0 mm 7 m/s 735 mmHg 59%
    11:00 +16°C° 0 mm 7 m/s 735 mmHg 52%
    12:00 +17°C° 0 mm 7 m/s 734 mmHg 51%
    13:00 +17°C° 0 mm 7 m/s 734 mmHg 49%
    14:00 +18°C° 0 mm 7 m/s 733 mmHg 48%
    15:00 +17°C° 0 mm 7 m/s 734 mmHg 50%
    16:00 +17°C° 0 mm 6 m/s 734 mmHg 51%
    17:00 +16°C° 0 mm 5 m/s 734 mmHg 53%
    18:00 +15°C° 0 mm 5 m/s 735 mmHg 57%
    19:00 +15°C° 0 mm 4 m/s 735 mmHg 61%
    20:00 +14°C° 0 mm 4 m/s 736 mmHg 65%
    21:00 +13°C° 0 mm 3 m/s 736 mmHg 68%
    22:00 +12°C° 0 mm 3 m/s 736 mmHg 71%
    23:00 +12°C° 0 mm 2 m/s 736 mmHg 75%

    1 Juin, Lundi

    Heure Température Précipitation Vent Pression Humidité
    00:00 +12°C° 0 mm 2 m/s 736 mmHg 78%
    01:00 +10°C° 0 mm 2 m/s 736 mmHg 82%
    02:00 +10°C° 0 mm 2 m/s 736 mmHg 85%
    03:00 +10°C° 0 mm 2 m/s 736 mmHg 86%
    04:00 +9°C° 0 mm 2 m/s 736 mmHg 87%
    05:00 +9°C° 0 mm 2 m/s 737 mmHg 89%
    06:00 +9°C° 0 mm 2 m/s 737 mmHg 86%
    07:00 +10°C° 0 mm 2 m/s 738 mmHg 83%
    08:00 +10°C° 0 mm 2 m/s 738 mmHg 81%
    09:00 +13°C° 0 mm 2 m/s 738 mmHg 73%
    10:00 +13°C° 0 mm 3 m/s 738 mmHg 65%
    11:00 +16°C° 0 mm 3 m/s 738 mmHg 58%
    12:00 +16°C° 0 mm 3 m/s 738 mmHg 55%
    13:00 +17°C° 0 mm 2 m/s 737 mmHg 52%
    14:00 +17°C° 0 mm 2 m/s 737 mmHg 50%
    15:00 +16°C° 0 mm 3 m/s 737 mmHg 53%
    16:00 +16°C° 0 mm 3 m/s 737 mmHg 56%
    17:00 +14°C° 0 mm 3 m/s 737 mmHg 58%
    18:00 +13°C° 0 mm 3 m/s 737 mmHg 60%
    19:00 +13°C° 0 mm 4 m/s 738 mmHg 62%
    20:00 +12°C° 0 mm 4 m/s 738 mmHg 64%
    21:00 +12°C° 0 mm 4 m/s 738 mmHg 66%
    22:00 +11°C° 0 mm 4 m/s 738 mmHg 68%
    23:00 +11°C° 0 mm 4 m/s 738 mmHg 70%

    2 Juin, Mardi

    Heure Température Précipitation Vent Pression Humidité
    00:00 +10°C° 0 mm 4 m/s 738 mmHg 71%
    01:00 +10°C° 0 mm 4 m/s 738 mmHg 73%
    02:00 +10°C° 0 mm 3 m/s 738 mmHg 74%
    03:00 +9°C° 0 mm 3 m/s 738 mmHg 75%
    04:00 +9°C° 0 mm 3 m/s 738 mmHg 76%
    05:00 +9°C° 0 mm 3 m/s 738 mmHg 76%
    06:00 +8°C° 0 mm 4 m/s 738 mmHg 75%
    07:00 +8°C° 0 mm 4 m/s 738 mmHg 73%
    08:00 +10°C° 0 mm 4 m/s 739 mmHg 72%
    09:00 +12°C° 0 mm 4 m/s 738 mmHg 65%
    10:00 +13°C° 0 mm 5 m/s 738 mmHg 58%
    11:00 +15°C° 0 mm 5 m/s 738 mmHg 51%
    12:00 +16°C° 0 mm 5 m/s 737 mmHg 48%
    13:00 +17°C° 0 mm 5 m/s 737 mmHg 44%
    14:00 +18°C° 0 mm 4 m/s 736 mmHg 41%
    15:00 +18°C° 0 mm 4 m/s 736 mmHg 42%
    16:00 +17°C° 0 mm 4 m/s 736 mmHg 43%
    17:00 +16°C° 0 mm 3 m/s 736 mmHg 45%
    18:00 +14°C° 0 mm 3 m/s 736 mmHg 47%
    19:00 +14°C° 0 mm 4 m/s 737 mmHg 49%
    20:00 +13°C° 0 mm 4 m/s 737 mmHg 51%
    21:00 +12°C° 0 mm 4 m/s 737 mmHg 53%
    22:00 +12°C° 0 mm 4 m/s 737 mmHg 56%
    23:00 +11°C° 0 mm 4 m/s 737 mmHg 58%

    3 Juin, Mercredi

    Heure Température Précipitation Vent Pression Humidité
    00:00 +11°C° 0 mm 4 m/s 737 mmHg 60%
    01:00 +10°C° 0 mm 4 m/s 737 mmHg 61%
    02:00 +10°C° 0 mm 4 m/s 737 mmHg 63%
    03:00 +8°C° 0 mm 4 m/s 737 mmHg 64%
    04:00 +8°C° 0 mm 4 m/s 737 mmHg 64%
    05:00 +8°C° 0 mm 4 m/s 737 mmHg 65%
    06:00 +10°C° 0 mm 4 m/s 737 mmHg 63%
    07:00 +10°C° 0 mm 4 m/s 737 mmHg 61%
    08:00 +9°C° 0 mm 5 m/s 737 mmHg 60%
    09:00 +12°C° 0 mm 5 m/s 737 mmHg 53%
    10:00 +14°C° 0 mm 5 m/s 737 mmHg 47%
    11:00 +16°C° 0 mm 5 m/s 737 mmHg 41%
    12:00 +18°C° 0 mm 4 m/s 736 mmHg 38%
    13:00 +19°C° 0 mm 4 m/s 735 mmHg 35%
    14:00 +20°C° 0 mm 3 m/s 735 mmHg 33%
    15:00 +19°C° 0 mm 3 m/s 735 mmHg 36%
    16:00 +18°C° 0 mm 2 m/s 735 mmHg 39%
    17:00 +18°C° 0 mm 1 m/s 735 mmHg 43%
    18:00 +16°C° 0 mm 1 m/s 735 mmHg 42%
    19:00 +16°C° 0 mm 2 m/s 735 mmHg 42%
    20:00 +16°C° 0 mm 2 m/s 736 mmHg 42%
    21:00 +16°C° 0 mm 2 m/s 736 mmHg 41%
    22:00 +17°C° 0 mm 2 m/s 736 mmHg 41%
    23:00 +17°C° 0 mm 2 m/s 736 mmHg 40%
    Voir plus